Regional Weather Roundup
Issued by NWS Grand Forks, ND

Home | Current Version | Previous Version | Text Only | Print | Product List | Glossary Off
Versions: 1 2 3 4 5 6 7 8 9 10 11 12 13 14 15 16 17 18 19 20 21 22 23 24 25 26 27 28 29 30 31 32 33 34 35 36 37 38 39 40 41 42 43 44 45 46 47 48 49 50

000
ASUS43 KFGF 182310
RWRFGF
PRAIRIE TO PINES  WEATHER ROUNDUP
NATIONAL WEATHER SERVICE EASTERN NORTH DAKOTA/GRAND FORKS ND
500 PM CST WED JAN 18 2017

 **SATELLITE DATA USED TO AUGMENT SKY COVER AT AUTOMATED STATIONS**
 *****  WEATHER ACROSS EASTERN NORTH DAKOTA  *****

CITY           SKY/WX    TMP DP  RH WIND       PRES   REMARKS
GRAND FORKS    FAIR      30  23  75 SE12      29.67S WCI  20
GRAND FRKS AFB FAIR      32  26  78 S9        29.66F WCI  24
DEVILS LAKE    FAIR      36  28  73 S8        29.62S
FARGO          FAIR      35  26  69 S10       29.73R
WAHPETON ARPT  FAIR      32  28  86 SE8       29.74S WCI  25
$$

 ***** WEATHER ACROSS CENTRAL AND WESTERN NORTH DAKOTA  *****

CITY           SKY/WX    TMP DP  RH WIND       PRES   REMARKS
BISMARCK       FAIR      27  20  75 SE5       29.66S WCI  22
MINOT          FAIR      41  28  60 SW16      29.55R
JAMESTOWN      FAIR      33  28  81 S10       29.66S WCI  25
MINOT AFB      FAIR      39  29  67 SW12      29.53S
GARRISON         N/A     33  26  75 S5        29.60R
WILLISTON      FAIR      37  26  64 SW6       29.57S
DICKINSON      FAIR      38  26  62 W5        29.59R
HETTINGER      FAIR      37  26  64 CALM      29.64S
$$

 *****  OTHER AIRPORT OBSERVATIONS IN OUR AREA  *****

CITY           SKY/WX    TMP DP  RH WIND       PRES   REMARKS
WALHALLA       NOT AVBL
GRAFTON AIRPOR FAIR      28  25  86 S13       29.67S WCI  18
VALLEY CITY AR FAIR      32  28  86 S13       29.69F WCI  22
CANDO          NOT AVBL
CAVALIER APRT    N/A     32  27  80 SE7       29.64R
GWINNER        FAIR      34  28  80 SW10      29.72S
SHEYENNE NWR     N/A     34  25  69 SW6       29.95S
ROLLA            N/A    N/A N/A N/A MISG        N/A
 ***** THE ABOVE OBSERVATIONS ARE NON NWS ARE NOT QUALITY
       CONTROLLED AND MAY MIS-REPORT RAIN FOR SNOW...
$$

  *****  WEATHER ACROSS NORTHERN MINNESOTA  *****

CITY           SKY/WX    TMP DP  RH WIND       PRES   REMARKS
FLAG ISLAND    FAIR      25  19  80 S7        29.68S WCI  17
WARROAD        FAIR      28  25  86 CALM      29.69R
ROSEAU         FAIR      32  25  74 S9        29.68S WCI  24
HALLOCK        FAIR      27  23  86 SE12      29.67S WCI  16
THF RVR FALLS  FAIR      31  24  75 S8        29.70F WCI  23
BAUDETTE       FAIR      34  23  64 S6        29.69S
WASKISH        FAIR      36  27  69 SE3       29.71F
CROOKSTON      FAIR      28  25  86 S12       29.71R WCI  18
GREENBUSH NDAW   N/A     28  23  80 S7          N/A  WCI  21
$$
  *****  WEATHER ACROSS CENTRAL AND WEST MINNESOTA  *****

CITY           SKY/WX    TMP DP  RH WIND       PRES   REMARKS
FOSSTON        FAIR      30  23  74 S6        29.71S WCI  24
BEMIDJI        FAIR      40  28  62 SE3       29.72R
PARK RAPIDS    FAIR      33  22  63 S6        29.74R
ELBOW LAKE     FAIR      33  28  85 E9        29.76S HAZE    WCI  25
WADENA         FAIR      34  25  69 S9        29.76S
DETROIT LAKES  FAIR      36  28  75 SE7       29.75R
MOORHEAD       FAIR      34  27  75 S10       29.75R
FERGUS FALLS   FAIR      34  27  75 SE10      29.79S
MORRIS MN      FAIR      36  30  80 SE10      29.75S
STAPLES        FAIR      36  25  64 S7        29.77S
$$
  *****  WEATHER ELSEWHERE ACROSS MINNESOTA  *****

CITY           SKY/WX    TMP DP  RH WIND       PRES   REMARKS
DULUTH         FAIR      37  26  64 SW6       29.79R
INTRNTL FALLS  FAIR      33  24  69 CALM      29.72S
ELY            FAIR      36  25  64 S3        29.75S
CLOQUET        FAIR      37  25  60 S5        29.80R
WHEATON        FAIR      39  34  81 SE6       29.77R
BRAINERD       FAIR      34  26  72 S8        29.79R
HIBBING        FAIR      37  24  59 S3        29.76R
ALEXANDRIA     FAIR      34  27  75 SE6       29.78R
SAINT CLOUD    FAIR      35  29  78 S8        29.82R
MINNEAPOLIS    FAIR      40  31  70 SW7       29.86S
$$

  *****  WEATHER ACROSS SOUTH DAKOTA  *****

CITY           SKY/WX    TMP DP  RH WIND       PRES   REMARKS
SIOUX FALLS    FAIR      44  39  82 S12       29.80F
BROOKINGS      FAIR      36  31  82 S8        29.77S
WATERTOWN      FAIR      33  27  78 S9        29.75S
HURON          FAIR      38  30  73 SE5       29.74S
SISSETON         N/A     39  29  67 SE7       29.72S
ABERDEEN       FAIR      29  21  72 S7        29.72F WCI  22
MITCHELL       FAIR      44  34  67 S9        29.75F
PIERRE         FAIR      30  23  75 SE5       29.68F
MOBRIDGE       FAIR      28  19  69 SE14      29.65F WCI  17
RAPID CITY     FAIR      35  25  66 E6        29.63F
$$

  *****  SOME WEATHER IN NEARBY STATES *****

CITY           SKY/WX    TMP DP  RH WIND       PRES   REMARKS
GLASGOW MT       N/A    N/A N/A N/A MISG        N/A
GREAT FALLS MT FAIR      47  29  49 S16       29.51F
CHEYENNE WY    FAIR      50  16  25 W8        29.78S
SCOTTSBLUFF NE FAIR      48  28  46 E3        29.73F
OMAHA NE       FAIR      46  39  76 SE13      29.90F
DES MOINES IA  FAIR      42  35  76 S9        29.97F
DAVENPORT IA   FAIR      38  33  82 S7        30.04F
CHICAGO IL     CLOUDY    35  31  85 SW8       30.07R
EAU CLAIRE WI  FAIR      36  30  79 S8        29.88S HAZE
LA CROSSE WI   FAIR      37  30  75 S10       29.96R
$$

  *****  SOME NATIONAL WEATHER *****

CITY           SKY/WX    TMP DP  RH WIND       PRES   REMARKS
LA GUARDIA NY  CLOUDY    43  37  79 N8        30.02R
RALEIGH NC     FAIR      60  33  36 N5        30.01R
ATLANTA GA     FAIR      65  52  62 W7        30.08S
NEW ORLEANS LA MOCLDY    73  68  84 S9        30.03S
OKLAHOMA CITY  CLOUDY    54  44  69 S8        29.98F
ALBUQUERQUE NM PTSUNNY   46  35  65 VRB7      29.99F
SALT LAKE CITY FAIR      31  22  69 N5        29.94F
LOS ANGELES CA CLOUDY    57  47  69 W16       30.14R
BOISE ID       SNOW      27  25  92 NE6       29.85F VSB 1/4 WCI  20
SEATTLE WA     CLOUDY    50  44  80 E9        29.30F
$$

*** WEATHER ACROSS MANITOBA...SASKATCHEWAN AND ONTARIO ***
                ***ONTARIO***

CITY           SKY/WX    TMP DP  RH WIND       PRES   REMARKS
GERALDTON      PTCLDY    28  25  86 W3        29.74R
THUNDER BAY    MOCLDY    30  25  80 NE3       29.77R
SIOUX LOOKOUT  MOCLDY    27  21  80 CALM      29.72S
TORONTO        CLOUDY    37  34  87 SW12      29.98F
BIG TROUT LK   CLOUDY    34  30  86 W3        29.70R
PICKLE LAKE    PTCLDY    28  25  86 VRB2      29.71R
DRYDEN         MOCLDY    30  25  80 SE6       29.70S WCI  24
KENORA         MOCLDY    30  25  80 S9        29.67S WCI  22
$$
                *** MANITOBA***

CITY           SKY/WX    TMP DP  RH WIND       PRES   REMARKS
BRANDON        MOCLDY    28  25  86 SW7       29.54S WCI  21
DAUPHIN        CLOUDY    36  30  80 VRB2      29.43F
ISLAND LAKE    MOCLDY    28  27  93 SE9       29.62F WCI  20
PILOT MOUND      N/A     30  25  80 S12         N/A  WCI  21
THE PAS        MOCLDY    36  28  75 SE15      29.34F
THOMPSON       CLOUDY    32  30  93 E6        29.50F
WINNIPEG       CLOUDY    30  25  80 S16       29.60F WCI  19
LYNN LAKE      CLOUDY    30  30 100 E10       29.38R FOG     WCI  21
CHURCHILL      FLURRIES   5   1  85 E5        29.71F WCI  -4
GILLAM         FLURRIES  27  25  93 E6        29.63S WCI  20
$$
                ***SASKATCHEWAN***

CITY           SKY/WX    TMP DP  RH WIND       PRES   REMARKS
ESTEVAN        PTCLDY    34  28  80 SW14      29.51F WCI  24
KINDERSLEY     MOCLDY    37  32  81 SW9       29.32R
LLOYDMINSTER   MOCLDY    39  32  75 SW13      29.21R
PRINCE ALBERT  PTCLDY    39  32  75 SW10      29.22F
REGINA         MOCLDY    37  30  75 S8        29.43F
YORKTON        CLEAR     37  30  75 S10G18    29.40F
N. BATTLEFORD  CLEAR     39  32  75 SW9       29.27R
LA RONGE       PTCLDY    36  30  80 E3        29.21S
SASKATOON      MOCLDY    41  32  70 SW15      29.30R
SWIFT CURRENT  MOCLDY    41  34  75 SW15      29.38S
$$
NOTE: THESE ARE AUTOMATED STATIONS WITH LIMITED QUALITY CONTROL
      "FAIR" INDICATES FEW OR NO CLOUDS BELOW 12,000 FEET WITH NO
      SIGNIFICANT WEATHER AND/OR OBSTRUCTIONS TO VISIBILITY.
      SKY/WX - SKY CONDITION AND SIGNIFICANT WEATHER.
      TMP - AIR TEMPERATURE.    DP   - DEWPOINT TEMPERATURE.
      RH  - RELATIVE HUMIDITY.  PRES - PRESSURE.
      HX  - HEAT INDEX.         WCI  - WIND CHILL INDEX.
$



USA.gov is the U.S. government's official web portal to all federal, state and local government web resources and services.